Location: Unspecified
(49.2170°N, 0.0000°E)
Time: 01:18:05
(UTC+00:00)

Transit 4A - Pass Details

Date: 24 June 2019
Orbit: 862 x 982 km, 66.8° (Epoch: 21 July)

Event Time Altitude Azimuth Distance (km) Brightness Sun altitude
Rises 16:31:20 0° 322° (NW) 3,694 11.5 32.2°
Reaches altitude 10° 16:33:57 10° 320° (NW) 2,736 11.0 31.8°
Maximum altitude 16:40:16 63° 241° (WSW) 1,072 9.3 30.7°
Drops below altitude 10° 16:46:24 10° 162° (SSE) 2,661 10.2 29.7°
Sets 16:48:55 0° 159° (SSE) 3,584 10.7 29.3°
